Regional Weather Roundup
Issued by NWS

Home | Current Version | Previous Version | Graphics & Text | Print | Product List | Glossary On
Versions: 1 2 3 4 5 6 7 8 9 10 11 12 13 14 15 16 17 18 19 20 21 22 23 24 25 26 27 28 29 30 31 32 33 34 35 36 37 38 39 40 41 42 43 44 45 46 47 48 49 50
649
ASUS45 KABQ 070601
RWRNM
NEW MEXICO REGIONAL WEATHER ROUNDUP
NATIONAL WEATHER SERVICE ALBUQUERQUE NM
1100 PM MST SAT FEB 06 2016

NOTE: "FAIR" MEANS FEW OR NO CLOUDS BELOW 12,000 FEET AGL WITH NO
       SIGNIFICANT WEATHER OR OBSTRUCTIONS TO VISION.

      THIS PRODUCT IS RELEASED AS TWO VERSIONS.  ONE VERSION NEAR
      THE TOP OF THE HOUR CONTAINING PRELIMINARY DATA FROM ALBUQUERQUE
      AND OTHER STATIONS.  A FINAL VERSION WITH ADDITIONAL DATA IS
      ISSUED ABOUT 10 MINUTES AFTER THE HOUR.

NMZ501-503-504-510>518-070700-
NORTHWEST PLATEAU/NORTHCENTRAL MOUNTAINS

CITY           SKY/WX    TMP DP  RH WIND       PRES   REMARKS
FARMINGTON     CLOUDY    22  16  78 NE5       30.41S WCI  16
6HR MIN TEMP:  21; 6HR MAX TEMP:  39;

SANTA FE       CLOUDY    31  16  54 NW12      30.32S WCI  22
6HR MIN TEMP:  28; 6HR MAX TEMP:  44;

TAOS           CLOUDY    16   9  73 CALM      30.37R

$$
NMZ402-403-502-505>509-070700-
WESTCENTRAL MOUNTAINS/SOUTHWEST MOUNTAINS

CITY           SKY/WX    TMP DP  RH WIND       PRES   REMARKS
GALLUP         CLEAR     20  15  81 CALM      30.41R
6HR MIN TEMP:  20; 6HR MAX TEMP:  46;

SILVER CITY      N/A     27  12  54 NE6       30.37S WCI  20

$$
NMZ407-409-411-412-070700-
SOUTHERN DESERTS

CITY           SKY/WX    TMP DP  RH WIND       PRES   REMARKS
DEMING         PTCLDY    31   5  33 NW6       30.34S WCI  25
6HR MIN TEMP:  31; 6HR MAX TEMP:  54;

HOLLOMAN AFB   CLOUDY    31   4  32 CALM      30.33S
ALAMOGORDO     CLOUDY    32   5  32 S3        30.34S
T OR C         CLEAR     33   6  32 NW8       30.35S WCI  26
6HR MIN TEMP:  32; 6HR MAX TEMP:  53;


$$
NMZ519>523-070700-
CENTRAL VALLEYS/CENTRAL HIGHLANDS

CITY           SKY/WX    TMP DP  RH WIND       PRES   REMARKS
ALBUQUERQUE    CLOUDY    39  13  34 N8        30.36S WCI  33
6HR MIN TEMP:  39; 6HR MAX TEMP:  49;

DOUBLE EAGLE   CLOUDY    28  13  53 NW6       30.37S WCI  21
MORIARTY ARPT  FAIR      30  15  52 NW12      30.32F WCI  21
6HR MIN TEMP:  29; 6HR MAX TEMP:  46;

CLINES CORNERS CLOUDY    28  16  60 NW20      30.26S WCI  15
6HR MIN TEMP:  27; 6HR MAX TEMP:  37;

BELEN          FAIR      27  13  55 N6        30.37S WCI  20
6HR MIN TEMP:  22; 6HR MAX TEMP:  49;

SOCORRO        NOT AVBL

$$
NMZ524>526-539-540-070700-
SOUTHCENTRAL MOUNTAINS

CITY           SKY/WX    TMP DP  RH WIND       PRES   REMARKS
RUIDOSO        NOT AVBL

$$
NMZ527>531-070700-
NORTHEAST HIGHLANDS/NORTHEAST PLAINS

CITY           SKY/WX    TMP DP  RH WIND       PRES   REMARKS
LAS VEGAS      CLOUDY    35  15  44 N9        30.20F WCI  28
6HR MIN TEMP:  33; 6HR MAX TEMP:  47;

RATON          CLOUDY    23  15  71 NE6       30.20R WCI  16
6HR MIN TEMP:  22; 6HR MAX TEMP:  51;

CLAYTON        CLOUDY    37  11  34 W13       30.14S WCI  29
6HR MIN TEMP:  35; 6HR MAX TEMP:  48;


$$
NMZ532>537-070700-
EASTCENTRAL PLAINS

CITY           SKY/WX    TMP DP  RH WIND       PRES   REMARKS
TUCUMCARI      CLEAR     31  15  52 W12       30.13F WCI  22
6HR MIN TEMP:  30; 6HR MAX TEMP:  56;

CANNON AFB     CLOUDY    34   9  35 W8        30.16F WCI  27
6HR MIN TEMP:  32; 6HR MAX TEMP:  55;

CLOVIS AIRPORT CLOUDY    28   9  43 SW10      30.16F WCI  19

$$
NMZ028-029-538-070700-
SOUTHEAST PLAINS

CITY           SKY/WX    TMP DP  RH WIND       PRES   REMARKS
ROSWELL        CLEAR     33  13  43 CALM      30.22S
6HR MIN TEMP:  33; 6HR MAX TEMP:  59;

ARTESIA        CLOUDY    39   9  28 W7        30.23F WCI  34
CARLSBAD       CLEAR     49   6  17 W15       30.22S
6HR MIN TEMP:  40; 6HR MAX TEMP:  60;

HOBBS          CLOUDY    32   7  34 SW8       30.25S WCI  25


$$




USA.gov is the U.S. government's official web portal to all federal, state and local government web resources and services.